This demonstration page uses our WeatherBlox Daily Observations layout. Learn more.

Left ArrowRight Arrow

39.12711, -84.51439

Hourly Observations for June 30, 2017

Temp ( °F °C ) Dew Point ( °F °C ) Humidity (%) Winds ( mph kmh ) Pressure ( in mb ) Visibility ( mi km ) Precip ( " mm )
12:53 am 00:53 Mostly Clear 77 25 69 20.6 77 77 SSW 12 19 29.94 1014 10 16 0.00 0.00
1:53 am 01:53 Cloudy 76 24.4 69 20.6 79 79 SSW 10 17 29.95 1014 10 16 0.00 0.00
2:53 am 02:53 Partly Cloudy 73 22.8 69 20.6 87 87 SSW 9 15 29.96 1015 10 16 0.00 0.00
3:53 am 03:53 Mostly Clear 74 23.3 68 20 82 82 SSW 9 15 29.94 1014 10 16 0.00 0.00
4:53 am 04:53 Clear 73 22.8 68 20 84 84 SSW 12 19 29.94 1014 10 16 0.00 0.00
5:53 am 05:53 Clear 72 22.2 68 20 87 87 SSW 9 15 29.96 1014 10 16 0.00 0.00
6:42 am 06:42 Mostly Cloudy 71 21.7 69 20.6 94 94 S 8 13 29.94 1014 10 16 0.00 0.00
6:53 am 06:53 Mostly Cloudy 72 22.2 69 20.6 91 91 S 8 13 29.97 1015 10 16 0.00 0.00
7:53 am 07:53 Cloudy 73 22.8 69 20.6 87 87 SSW 10 17 29.99 1016 10 16 0.00 0.00
8:53 am 08:53 Cloudy 74 23.3 70 21.1 88 88 SSW 9 15 29.98 1015 10 16 0.00 0.00
9:53 am 09:53 Cloudy 75 23.9 70 21.1 84 84 SSW 12 19 29.98 1015 10 16 0.00 0.00
10:53 am 10:53 Cloudy 76 24.4 71 21.7 85 85 SSW 12 19 29.96 1015 10 16 0.00 0.00
11:53 am 11:53 Cloudy 77 25 71 21.7 82 82 SSW 9 15 29.95 1014 10 16 0.00 0.00
12:53 pm 12:53 Cloudy 80 26.7 72 22.2 76 76 SW 6 9 29.95 1014 10 16 0.00 0.00
1:53 pm 13:53 Mostly Cloudy 81 27.2 72 22.2 74 74 SSW 10 17 29.94 1014 10 16 0.00 0.00
2:53 pm 14:53 Mostly Cloudy 83 28.3 72 22.2 70 70 SW 10 17 29.92 1013 10 16 0.00 0.00
3:53 pm 15:53 Mostly Cloudy 83 28.3 71 21.7 67 67 SSW 14 22 29.89 1012 10 16 0.00 0.00
4:53 pm 16:53 Partly Cloudy 84 28.9 72 22.2 67 67 SW 7 11 29.87 1012 10 16 0.00 0.00
5:53 pm 17:53 Mostly Cloudy 84 28.9 72 22.2 67 67 S 8 13 29.86 1011 10 16 0.00 0.00
6:53 pm 18:53 Mostly Sunny 83 28.3 71 21.7 67 67 S 10 17 29.84 1011 10 16 0.00 0.00
7:53 pm 19:53 Sunny 81 27.2 72 22.2 74 74 S 5 7 29.84 1011 10 16 0.00 0.00
8:53 pm 20:53 Sunny 78 25.6 71 21.7 79 79 S 3 6 29.84 1010 10 16 0.00 0.00
9:53 pm 21:53 Partly Cloudy 74 23.3 71 21.7 91 91 Calm 29.85 1011 10 16 0.00 0.00
10:53 pm 22:53 Mostly Cloudy 75 23.9 71 21.7 88 88 Calm 29.86 1011 10 16 0.00 0.00
11:53 pm 23:53 Mostly Cloudy with Light Rain 71 21.7 70 21.1 96 96 S 7 11 29.88 1012 10 16 0.06 1.52

Powered by AerisWeather